Location: Asheville, NC
(35.6000°N, 82.5500°W)
Time: 06:02:29
(UTC-04:00)

Vanguard 1 - Pass Details

Date: 12 December 2017
Orbit: 650 x 3833 km, 34.2° (Epoch: 22 July)

Event Time Altitude Azimuth Distance (km) Brightness Sun altitude
Rises 12:25:22 0° 266° (W) 7,474 14.6 31.3°
Reaches altitude 10° 12:30:59 10° 267° (W) 6,080 14.2 31.3°
Maximum altitude 12:48:09 85° 182° (S) 2,000 12.3 31.0°
Drops below altitude 10° 12:57:01 10° 94° (E) 3,363 12.9 30.8°
Sets 12:59:14 0° 94° (E) 4,065 13.2 30.7°
